Time,TemperatureF,DewpointF,PressureIn,WindDirection,WindDirectionDegrees,WindSpeedMPH,WindSpeedGustMPH,Humidity,HourlyPrecipIn,Conditions,Clouds,dailyrainin,SolarRadiationWatts/m^2,SoftwareType,DateUTC
2013-07-18 03:22:00,55.0,53.0,-100.00,North,1,0.0,2.0,93,-99.99,,,0.00,0.000000,,2013-07-18 11:22:00,
2013-07-18 03:32:00,55.0,53.0,-100.00,North,1,0.0,2.0,93,-99.99,,,0.00,0.000000,,2013-07-18 11:32:00,
2013-07-18 03:43:00,55.0,53.0,-100.00,North,1,0.0,2.0,93,-99.99,,,0.00,0.000000,,2013-07-18 11:43:00,
2013-07-18 03:52:00,55.0,53.0,-100.00,North,1,0.0,2.0,93,-99.99,,,0.00,0.000000,,2013-07-18 11:52:00,
2013-07-18 04:32:00,52.0,51.0,-100.00,North,10,0.0,1.0,98,0.00,,,0.00,0.000000,,2013-07-18 12:32:00,
2013-07-18 04:42:00,52.0,51.0,-100.00,North,10,0.0,1.0,98,0.00,,,0.00,0.000000,,2013-07-18 12:42:00,
2013-07-18 04:52:00,52.0,51.0,-100.00,North,10,0.0,1.0,98,0.00,,,0.00,0.000000,,2013-07-18 12:52:00,
2013-07-18 05:22:00,51.0,51.0,-100.00,NNE,22,0.0,0.0,99,0.00,,,0.00,1.000000,,2013-07-18 13:22:00,
2013-07-18 05:32:00,51.0,51.0,-100.00,NNE,22,0.0,0.0,99,0.00,,,0.00,1.000000,,2013-07-18 13:32:00,
2013-07-18 05:43:00,51.0,51.0,-100.00,NNE,22,0.0,0.0,99,0.00,,,0.00,1.000000,,2013-07-18 13:43:00,
2013-07-18 05:52:00,51.0,51.0,-100.00,NNE,22,0.0,0.0,99,0.00,,,0.00,1.000000,,2013-07-18 13:52:00,
2013-07-18 06:22:00,50.0,50.0,-100.00,NE,34,0.0,0.0,100,0.00,,,0.00,4.000000,,2013-07-18 14:22:00,
2013-07-18 06:32:00,50.0,50.0,-100.00,NE,34,0.0,0.0,100,0.00,,,0.00,4.000000,,2013-07-18 14:32:00,
2013-07-18 06:43:00,50.0,50.0,-100.00,NE,34,0.0,0.0,100,0.00,,,0.00,4.000000,,2013-07-18 14:43:00,
2013-07-18 06:52:00,50.0,50.0,-100.00,NE,34,0.0,0.0,100,0.00,,,0.00,4.000000,,2013-07-18 14:52:00,
2013-07-18 07:42:00,50.0,50.0,-100.00,NNE,31,0.0,1.0,100,0.00,,,0.00,9.000000,,2013-07-18 15:42:00,
2013-07-18 07:53:00,50.0,50.0,-100.00,NNE,31,0.0,1.0,100,0.00,,,0.00,9.000000,,2013-07-18 15:53:00,
2013-07-18 08:22:00,55.0,55.0,-100.00,NE,37,0.0,2.0,100,0.00,,,0.00,37.000000,,2013-07-18 16:22:00,
2013-07-18 08:32:00,55.0,55.0,-100.00,NE,37,0.0,2.0,100,0.00,,,0.00,37.000000,,2013-07-18 16:32:00,
2013-07-18 08:42:00,55.0,55.0,-100.00,NE,37,0.0,2.0,100,0.00,,,0.00,37.000000,,2013-07-18 16:42:00,
2013-07-18 08:52:00,55.0,55.0,-100.00,NE,37,0.0,2.0,100,0.00,,,0.00,37.000000,,2013-07-18 16:52:00,
2013-07-18 09:22:00,61.0,56.0,-100.00,SSW,193,0.0,2.0,85,0.00,,,-99.99,181.000000,,2013-07-18 17:22:00,
2013-07-18 09:33:00,61.0,56.0,-100.00,SSW,193,0.0,2.0,85,0.00,,,-99.99,181.000000,,2013-07-18 17:33:00,
2013-07-18 09:43:00,61.0,56.0,-100.00,SSW,193,0.0,2.0,85,0.00,,,-99.99,181.000000,,2013-07-18 17:43:00,
2013-07-18 09:52:00,61.0,56.0,-100.00,SSW,193,0.0,2.0,85,0.00,,,-99.99,181.000000,,2013-07-18 17:52:00,
2013-07-18 10:22:00,62.0,56.0,-100.00,South,180,1.0,3.0,80,0.00,,,0.00,66.000000,,2013-07-18 18:22:00,
2013-07-18 10:32:00,62.0,56.0,-100.00,South,180,1.0,3.0,80,0.00,,,0.00,66.000000,,2013-07-18 18:32:00,
2013-07-18 10:43:00,62.0,56.0,-100.00,South,180,1.0,3.0,80,0.00,,,0.00,66.000000,,2013-07-18 18:43:00,
2013-07-18 10:52:00,62.0,56.0,-100.00,South,180,1.0,3.0,80,0.00,,,0.00,66.000000,,2013-07-18 18:52:00,
2013-07-18 11:22:00,68.0,59.0,-100.00,ENE,66,0.0,3.0,74,0.00,,,0.00,156.000000,,2013-07-18 19:22:00,
2013-07-18 11:32:00,68.0,59.0,-100.00,ENE,66,0.0,3.0,74,0.00,,,0.00,156.000000,,2013-07-18 19:32:00,
2013-07-18 11:43:00,68.0,59.0,-100.00,ENE,66,0.0,3.0,74,0.00,,,0.00,156.000000,,2013-07-18 19:43:00,
2013-07-18 11:53:00,68.0,59.0,-100.00,ENE,66,0.0,3.0,74,0.00,,,0.00,156.000000,,2013-07-18 19:53:00,
2013-07-18 12:43:00,74.0,55.0,-100.00,SW,215,1.0,4.0,52,0.00,,,0.00,538.000000,,2013-07-18 20:43:00,
2013-07-18 12:52:00,74.0,55.0,-100.00,SW,215,1.0,4.0,52,0.00,,,0.00,538.000000,,2013-07-18 20:52:00,
2013-07-18 13:32:00,80.0,59.0,-100.00,West,264,1.0,4.0,49,0.00,,,0.00,781.000000,,2013-07-18 21:32:00,
2013-07-18 13:43:00,80.0,59.0,-100.00,West,264,1.0,4.0,49,0.00,,,0.00,781.000000,,2013-07-18 21:43:00,
2013-07-18 13:52:00,80.0,59.0,-100.00,West,264,1.0,4.0,49,0.00,,,0.00,781.000000,,2013-07-18 21:52:00,
2013-07-18 15:22:00,76.0,57.0,-100.00,South,180,1.0,5.0,52,0.00,,,0.00,569.000000,,2013-07-18 23:22:00,
2013-07-18 15:32:00,76.0,57.0,-100.00,South,180,1.0,5.0,52,0.00,,,0.00,569.000000,,2013-07-18 23:32:00,
2013-07-18 15:42:00,76.0,57.0,-100.00,South,180,1.0,5.0,52,0.00,,,0.00,569.000000,,2013-07-18 23:42:00,
2013-07-18 15:52:00,76.0,57.0,-100.00,South,180,1.0,5.0,52,0.00,,,0.00,569.000000,,2013-07-18 23:52:00,
2013-07-18 16:43:00,72.0,56.0,-100.00,South,182,2.0,4.0,57,0.00,,,0.00,283.000000,,2013-07-19 00:43:00,
2013-07-18 16:52:00,72.0,56.0,-100.00,South,182,2.0,4.0,57,0.00,,,0.00,283.000000,,2013-07-19 00:52:00,
2013-07-18 17:22:00,70.0,57.0,-100.00,SSE,149,1.0,6.0,64,0.00,,,0.00,153.000000,,2013-07-19 01:22:00,
2013-07-18 17:32:00,70.0,57.0,-100.00,SSE,149,1.0,6.0,64,0.00,,,0.00,153.000000,,2013-07-19 01:32:00,
2013-07-18 17:42:00,70.0,57.0,-100.00,SSE,149,1.0,6.0,64,0.00,,,0.00,153.000000,,2013-07-19 01:42:00,
2013-07-18 17:52:00,70.0,57.0,-100.00,SSE,149,1.0,6.0,64,0.00,,,0.00,153.000000,,2013-07-19 01:52:00,
2013-07-18 18:22:00,73.0,60.0,-100.00,WNW,295,0.0,4.0,63,0.00,,,0.00,187.000000,,2013-07-19 02:22:00,
2013-07-18 18:32:00,73.0,60.0,-100.00,WNW,295,0.0,4.0,63,0.00,,,0.00,187.000000,,2013-07-19 02:32:00,
2013-07-18 18:42:00,73.0,60.0,-100.00,WNW,295,0.0,4.0,63,0.00,,,0.00,187.000000,,2013-07-19 02:42:00,
2013-07-18 18:52:00,73.0,60.0,-100.00,WNW,295,0.0,4.0,63,0.00,,,0.00,187.000000,,2013-07-19 02:52:00,
2013-07-18 19:22:00,71.0,55.0,-100.00,SSE,160,0.0,4.0,57,0.00,,,0.00,275.000000,,2013-07-19 03:22:00,
2013-07-18 19:32:00,71.0,55.0,-100.00,SSE,160,0.0,4.0,57,0.00,,,0.00,275.000000,,2013-07-19 03:32:00,
2013-07-18 19:42:00,71.0,55.0,-100.00,SSE,160,0.0,4.0,57,0.00,,,0.00,275.000000,,2013-07-19 03:42:00,
2013-07-18 19:52:00,71.0,55.0,-100.00,SSE,160,0.0,4.0,57,0.00,,,0.00,275.000000,,2013-07-19 03:52:00,
2013-07-18 20:43:00,74.0,57.0,-100.00,SW,220,3.0,6.0,55,0.00,,,0.00,155.000000,,2013-07-19 04:43:00,
2013-07-18 20:52:00,74.0,57.0,-100.00,SW,220,3.0,6.0,55,0.00,,,0.00,155.000000,,2013-07-19 04:52:00,
2013-07-18 21:32:00,69.0,55.0,-100.00,SSE,151,2.0,6.0,62,0.00,,,0.00,67.000000,,2013-07-19 05:32:00,
2013-07-18 21:42:00,69.0,55.0,-100.00,SSE,151,2.0,6.0,62,0.00,,,0.00,67.000000,,2013-07-19 05:42:00,
2013-07-18 21:52:00,69.0,55.0,-100.00,SSE,151,2.0,6.0,62,0.00,,,0.00,67.000000,,2013-07-19 05:52:00,
2013-07-18 22:22:00,66.0,55.0,-100.00,SSE,154,3.0,7.0,67,0.00,,,0.00,37.000000,,2013-07-19 06:22:00,
2013-07-18 22:32:00,66.0,55.0,-100.00,SSE,154,3.0,7.0,67,0.00,,,0.00,37.000000,,2013-07-19 06:32:00,
2013-07-18 22:43:00,66.0,55.0,-100.00,SSE,154,3.0,7.0,67,0.00,,,0.00,37.000000,,2013-07-19 06:43:00,
2013-07-18 22:52:00,66.0,55.0,-100.00,SSE,154,3.0,7.0,67,0.00,,,0.00,37.000000,,2013-07-19 06:52:00,
2013-07-18 23:43:00,63.0,55.0,-100.00,SE,132,2.0,9.0,75,0.00,,,0.00,10.000000,,2013-07-19 07:43:00,
2013-07-18 23:53:00,63.0,55.0,-100.00,SE,132,2.0,9.0,75,0.00,,,0.00,10.000000,,2013-07-19 07:53:00,